Location: Bad Dürkheim
(49.4618°N, 8.1724°E)
Time: 05:08:29
(UTC+00:00)

SPOT 3 Rocket - Pass Details

Date: 14 June 2025
Orbit: 776 x 789 km, 98.5° (Epoch: 12 July)

Event Time Altitude Azimuth Distance (km) Brightness Sun altitude
Exits shadow 21:14:36 10° 182° (S) 2,327 5.5 -11.4°
Reaches altitude 10° 21:14:37 10° 182° (S) 2,322 5.5 -11.4°
Maximum altitude 21:19:37 54° 260° (W) 949 4.1 -11.8°
Drops below altitude 10° 21:24:41 10° 337° (NNW) 2,347 7.5 -12.3°
Sets 21:27:05 0° 342° (NNW) 3,281 8.6 -12.4°
